Time,TemperatureF,DewpointF,PressureIn,WindDirection,WindDirectionDegrees,WindSpeedMPH,WindSpeedGustMPH,Humidity,HourlyPrecipIn,Conditions,Clouds,dailyrainin,SoftwareType,DateUTC
2013-08-24 00:04:00,70.2,46.0,30.00,SE,125,5.4,6.9,42,0.00,,---,0.00,VWS V14.01,2013-08-23 22:04:00,
2013-08-24 00:09:00,70.0,45.9,30.00,South,172,3.1,6.3,42,0.00,,---,0.00,VWS V14.01,2013-08-23 22:09:00,
2013-08-24 00:14:00,70.0,46.5,30.00,West,262,3.1,4.9,43,0.00,,---,0.00,VWS V14.01,2013-08-23 22:14:00,
2013-08-24 00:19:00,69.8,46.3,30.00,West,260,3.1,3.6,43,0.00,,---,0.00,VWS V14.01,2013-08-23 22:19:00,
2013-08-24 00:24:00,69.8,46.3,30.00,NW,307,2.7,4.9,43,0.00,,---,0.00,VWS V14.01,2013-08-23 22:24:00,
2013-08-24 00:29:00,69.6,46.2,30.00,NW,307,3.1,4.5,43,0.00,,---,0.00,VWS V14.01,2013-08-23 22:29:00,
2013-08-24 00:34:00,69.4,46.0,30.00,West,271,4.5,5.4,43,0.00,,---,0.00,VWS V14.01,2013-08-23 22:34:00,
2013-08-24 00:39:00,69.4,46.6,30.00,West,277,4.9,5.4,44,0.00,,---,0.00,VWS V14.01,2013-08-23 22:39:00,
2013-08-24 00:44:00,69.1,46.9,30.00,West,277,0.0,4.5,45,0.00,,---,0.00,VWS V14.01,2013-08-23 22:44:00,
2013-08-24 00:49:00,68.9,47.3,30.00,NW,309,4.0,4.9,46,0.00,,---,0.00,VWS V14.01,2013-08-23 22:49:00,
2013-08-24 00:54:00,68.5,47.0,30.00,NW,318,3.6,4.9,46,0.00,,---,0.00,VWS V14.01,2013-08-23 22:54:00,
2013-08-24 00:59:00,68.4,46.8,30.00,NNW,339,5.4,6.3,46,0.00,,---,0.00,VWS V14.01,2013-08-23 22:59:00,
2013-08-24 01:04:00,68.2,46.6,30.00,NW,309,4.5,4.5,46,0.00,,---,0.00,VWS V14.01,2013-08-23 23:04:00,
2013-08-24 01:09:00,68.2,47.2,30.00,WNW,282,3.1,3.6,47,0.00,,---,0.00,VWS V14.01,2013-08-23 23:09:00,
2013-08-24 01:14:00,68.2,47.2,30.00,WNW,284,4.5,5.4,47,0.00,,---,0.00,VWS V14.01,2013-08-23 23:14:00,
2013-08-24 01:19:00,68.0,47.6,30.00,West,276,4.0,5.4,48,0.00,,---,0.00,VWS V14.01,2013-08-23 23:19:00,
2013-08-24 01:24:00,67.6,47.3,30.00,West,276,2.7,3.6,48,0.00,,---,0.00,VWS V14.01,2013-08-23 23:24:00,
2013-08-24 01:29:00,67.5,47.7,30.00,West,278,4.5,4.5,49,0.00,,---,0.00,VWS V14.01,2013-08-23 23:29:00,
2013-08-24 01:34:00,67.3,47.5,30.00,West,278,0.0,0.0,49,0.00,,---,0.00,VWS V14.01,2013-08-23 23:34:00,
2013-08-24 01:39:00,67.1,47.9,30.00,West,278,0.0,0.0,50,0.00,,---,0.00,VWS V14.01,2013-08-23 23:39:00,
2013-08-24 01:44:00,67.1,47.9,30.00,West,278,0.0,0.0,50,0.00,,---,0.00,VWS V14.01,2013-08-23 23:44:00,
2013-08-24 01:49:00,67.3,48.0,30.00,West,278,0.0,0.0,50,0.00,,---,0.00,VWS V14.01,2013-08-23 23:49:00,
2013-08-24 01:54:00,67.3,48.0,30.00,West,278,0.0,0.0,50,0.00,,---,0.00,VWS V14.01,2013-08-23 23:54:00,
2013-08-24 01:59:00,67.3,48.0,30.00,West,278,2.7,4.0,50,0.00,,---,0.00,VWS V14.01,2013-08-23 23:59:00,
2013-08-24 02:04:00,67.1,48.4,30.00,West,278,3.1,3.6,51,0.00,,---,0.00,VWS V14.01,2013-08-24 00:04:00,
2013-08-24 02:09:00,66.9,48.2,30.00,West,278,0.0,3.6,51,0.00,,---,0.00,VWS V14.01,2013-08-24 00:09:00,
2013-08-24 02:14:00,66.6,47.9,30.00,West,278,0.0,0.0,51,0.00,,---,0.00,VWS V14.01,2013-08-24 00:14:00,
2013-08-24 02:19:00,66.4,48.2,30.00,West,278,0.0,0.0,52,0.00,,---,0.00,VWS V14.01,2013-08-24 00:19:00,
2013-08-24 02:24:00,66.0,48.4,30.00,West,278,3.1,4.0,53,0.00,,---,0.00,VWS V14.01,2013-08-24 00:24:00,
2013-08-24 02:29:00,66.0,48.4,30.00,West,279,3.6,4.0,53,0.00,,---,0.00,VWS V14.01,2013-08-24 00:29:00,
2013-08-24 02:34:00,65.8,48.8,30.00,West,279,0.0,3.1,54,0.00,,---,0.00,VWS V14.01,2013-08-24 00:34:00,
2013-08-24 02:39:00,65.8,48.8,30.00,NW,311,3.1,5.8,54,0.00,,---,0.00,VWS V14.01,2013-08-24 00:39:00,
2013-08-24 02:44:00,65.8,49.2,30.00,NW,310,3.6,4.9,55,0.00,,---,0.00,VWS V14.01,2013-08-24 00:44:00,
2013-08-24 02:49:00,65.8,48.8,30.00,NW,307,3.6,4.9,54,0.00,,---,0.00,VWS V14.01,2013-08-24 00:49:00,
2013-08-24 02:54:00,65.7,49.1,30.00,NW,318,4.5,5.4,55,0.00,,---,0.00,VWS V14.01,2013-08-24 00:54:00,
2013-08-24 02:59:00,65.5,48.9,30.00,NW,319,2.7,2.7,55,0.00,,---,0.00,VWS V14.01,2013-08-24 00:59:00,
2013-08-24 03:04:00,65.3,48.7,30.00,NW,319,4.5,4.5,55,0.00,,---,0.00,VWS V14.01,2013-08-24 01:04:00,
2013-08-24 03:09:00,65.1,49.5,30.00,NNW,329,4.0,5.4,57,0.00,,---,0.00,VWS V14.01,2013-08-24 01:09:00,
2013-08-24 03:14:00,64.8,49.7,30.00,WNW,299,3.1,4.9,58,0.00,,---,0.00,VWS V14.01,2013-08-24 01:14:00,
2013-08-24 03:19:00,64.6,50.0,29.97,NW,319,3.6,4.9,59,0.00,,---,0.00,VWS V14.01,2013-08-24 01:19:00,
2013-08-24 03:24:00,64.2,50.1,29.97,NW,313,2.7,4.5,60,0.00,,---,0.00,VWS V14.01,2013-08-24 01:24:00,
2013-08-24 03:29:00,64.2,50.5,29.97,NW,314,0.0,3.1,61,0.00,,---,0.00,VWS V14.01,2013-08-24 01:29:00,
2013-08-24 03:34:00,63.9,50.6,29.97,NNW,337,3.1,4.0,62,0.00,,---,0.00,VWS V14.01,2013-08-24 01:34:00,
2013-08-24 03:39:00,63.7,50.4,29.97,NNW,341,5.4,6.3,62,0.00,,---,0.00,VWS V14.01,2013-08-24 01:39:00,
2013-08-24 03:44:00,63.5,50.7,29.97,NNW,336,6.3,6.3,63,0.00,,---,0.00,VWS V14.01,2013-08-24 01:44:00,
2013-08-24 03:49:00,63.5,50.7,29.97,NNW,340,5.4,5.4,63,0.00,,---,0.00,VWS V14.01,2013-08-24 01:49:00,
2013-08-24 03:54:00,63.3,51.0,29.97,NNW,346,5.4,5.8,64,0.00,,---,0.00,VWS V14.01,2013-08-24 01:54:00,
2013-08-24 03:59:00,63.3,51.0,29.97,NNW,335,4.9,4.9,64,0.00,,---,0.00,VWS V14.01,2013-08-24 01:59:00,
2013-08-24 04:04:00,63.5,50.7,29.97,NNW,331,3.6,5.4,63,0.00,,---,0.00,VWS V14.01,2013-08-24 02:04:00,
2013-08-24 04:09:00,63.5,50.7,29.97,NNW,333,4.9,4.9,63,0.00,,---,0.00,VWS V14.01,2013-08-24 02:09:00,
2013-08-24 04:14:00,63.5,50.3,29.97,NNW,338,3.1,5.8,62,0.00,,---,0.00,VWS V14.01,2013-08-24 02:14:00,
2013-08-24 04:19:00,63.5,50.3,29.97,NNW,343,2.7,5.4,62,0.00,,---,0.00,VWS V14.01,2013-08-24 02:19:00,
2013-08-24 04:24:00,63.5,50.7,29.97,NNW,336,4.9,4.9,63,0.00,,---,0.00,VWS V14.01,2013-08-24 02:24:00,
2013-08-24 04:29:00,63.1,50.3,29.97,NNW,337,4.5,4.5,63,0.00,,---,0.00,VWS V14.01,2013-08-24 02:29:00,
2013-08-24 04:34:00,63.0,50.6,29.97,NNW,335,4.0,5.8,64,0.00,,---,0.00,VWS V14.01,2013-08-24 02:34:00,
2013-08-24 04:39:00,62.8,50.4,29.97,NNW,335,0.0,4.5,64,0.00,,---,0.00,VWS V14.01,2013-08-24 02:39:00,
2013-08-24 04:44:00,62.6,50.3,29.97,WNW,295,2.7,4.0,64,0.00,,---,0.00,VWS V14.01,2013-08-24 02:44:00,
2013-08-24 04:49:00,62.6,50.3,29.97,NNW,327,0.0,4.0,64,0.00,,---,0.00,VWS V14.01,2013-08-24 02:49:00,
2013-08-24 04:54:00,62.6,50.3,29.97,North,351,4.0,4.9,64,0.00,,---,0.00,VWS V14.01,2013-08-24 02:54:00,
2013-08-24 04:59:00,62.4,50.5,29.97,NNW,342,3.6,4.9,65,0.00,,---,0.00,VWS V14.01,2013-08-24 02:59:00,
2013-08-24 05:04:00,62.4,50.5,29.97,NW,321,4.5,4.9,65,0.00,,---,0.00,VWS V14.01,2013-08-24 03:04:00,
2013-08-24 05:09:00,62.2,50.3,29.97,NNW,337,3.1,5.4,65,0.00,,---,0.00,VWS V14.01,2013-08-24 03:09:00,
2013-08-24 05:14:00,62.2,50.3,29.97,NW,311,3.1,4.0,65,0.00,,---,0.00,VWS V14.01,2013-08-24 03:14:00,
2013-08-24 05:19:00,62.2,50.8,29.97,NNW,334,4.0,5.4,66,0.00,,---,0.00,VWS V14.01,2013-08-24 03:19:00,
2013-08-24 05:24:00,61.9,50.4,29.97,NW,325,3.1,4.0,66,0.00,,---,0.00,VWS V14.01,2013-08-24 03:24:00,
2013-08-24 05:29:00,61.7,50.2,29.97,NNW,336,3.6,4.5,66,0.00,,---,0.00,VWS V14.01,2013-08-24 03:29:00,
2013-08-24 05:34:00,61.7,50.6,29.97,NNW,341,3.1,4.0,67,0.00,,---,0.00,VWS V14.01,2013-08-24 03:34:00,
2013-08-24 05:39:00,61.5,50.5,29.97,NNW,334,0.0,4.0,67,0.00,,---,0.00,VWS V14.01,2013-08-24 03:39:00,
2013-08-24 05:44:00,61.3,50.7,29.97,NNW,338,3.6,4.9,68,0.00,,---,0.00,VWS V14.01,2013-08-24 03:44:00,
2013-08-24 05:49:00,61.3,50.7,29.97,NW,322,4.9,5.8,68,0.00,,---,0.00,VWS V14.01,2013-08-24 03:49:00,
2013-08-24 05:54:00,61.3,50.7,29.97,NW,322,3.1,3.1,68,0.00,,---,0.00,VWS V14.01,2013-08-24 03:54:00,
2013-08-24 05:59:00,61.3,50.7,29.97,NNW,327,4.0,4.9,68,0.00,,---,0.00,VWS V14.01,2013-08-24 03:59:00,
2013-08-24 06:01:00,61.2,50.5,29.97,NNW,328,3.1,3.1,68,0.00,,---,0.00,VWS V14.01,2013-08-24 04:01:00,
2013-08-24 06:02:00,61.2,50.5,29.97,NNW,342,3.1,5.4,68,0.00,,---,0.00,VWS V14.01,2013-08-24 04:02:00,
2013-08-24 06:07:00,61.2,50.5,29.97,NNW,330,2.7,4.5,68,0.00,,---,0.00,VWS V14.01,2013-08-24 04:07:00,
2013-08-24 06:12:00,61.2,50.5,29.97,North,351,4.0,4.9,68,0.00,,---,0.00,VWS V14.01,2013-08-24 04:12:00,
2013-08-24 06:17:00,61.0,50.8,29.97,North,351,4.0,4.9,69,0.00,,---,0.00,VWS V14.01,2013-08-24 04:17:00,
2013-08-24 06:22:00,61.0,50.8,29.97,NNW,339,3.1,6.7,69,0.00,,---,0.00,VWS V14.01,2013-08-24 04:22:00,
2013-08-24 06:27:00,61.0,50.8,29.97,NNW,336,5.8,5.8,69,0.00,,---,0.00,VWS V14.01,2013-08-24 04:27:00,
2013-08-24 06:32:00,61.0,50.8,29.97,NNW,340,6.7,6.7,69,0.00,,---,0.00,VWS V14.01,2013-08-24 04:32:00,
2013-08-24 06:37:00,61.0,50.8,29.97,NNW,337,5.8,5.8,69,0.00,,---,0.00,VWS V14.01,2013-08-24 04:37:00,
2013-08-24 06:42:00,61.0,51.1,29.97,North,351,4.5,4.5,70,0.00,,---,0.00,VWS V14.01,2013-08-24 04:42:00,
2013-08-24 06:47:00,61.0,51.1,29.97,NNW,341,6.7,6.7,70,0.00,,---,0.00,VWS V14.01,2013-08-24 04:47:00,
2013-08-24 06:52:00,61.0,51.1,29.97,NNW,339,3.6,5.4,70,0.00,,---,0.00,VWS V14.01,2013-08-24 04:52:00,
2013-08-24 06:57:00,60.8,50.6,29.97,NNW,342,4.0,5.4,69,0.00,,---,0.00,VWS V14.01,2013-08-24 04:57:00,
2013-08-24 07:02:00,61.0,51.1,29.97,NNW,347,4.9,6.3,70,0.00,,---,0.00,VWS V14.01,2013-08-24 05:02:00,
2013-08-24 07:07:00,61.0,50.8,29.97,NNW,347,4.5,5.8,69,0.00,,---,0.00,VWS V14.01,2013-08-24 05:07:00,
2013-08-24 07:12:00,61.3,51.1,29.97,NW,325,4.9,6.3,69,0.00,,---,0.00,VWS V14.01,2013-08-24 05:12:00,
2013-08-24 07:17:00,61.5,51.3,29.97,NNW,333,5.4,5.8,69,0.00,,---,0.00,VWS V14.01,2013-08-24 05:17:00,
2013-08-24 07:22:00,61.9,51.2,29.97,NNW,338,3.6,5.8,68,0.00,,---,0.00,VWS V14.01,2013-08-24 05:22:00,
2013-08-24 07:28:00,62.1,51.0,29.97,NNW,347,4.5,4.5,67,0.00,,---,0.00,VWS V14.01,2013-08-24 05:28:00,
2013-08-24 07:33:00,62.4,51.3,29.97,NNW,346,2.7,5.8,67,0.00,,---,0.00,VWS V14.01,2013-08-24 05:33:00,
2013-08-24 07:38:00,63.0,51.4,29.97,NNW,343,4.0,4.5,66,0.00,,---,0.00,VWS V14.01,2013-08-24 05:38:00,
2013-08-24 07:43:00,63.3,51.4,29.97,North,351,4.9,4.9,65,0.00,,---,0.00,VWS V14.01,2013-08-24 05:43:00,
2013-08-24 07:48:00,63.7,51.3,29.97,NNW,340,5.4,5.8,64,0.00,,---,0.00,VWS V14.01,2013-08-24 05:48:00,
2013-08-24 07:53:00,64.2,51.4,29.97,NNW,336,4.0,4.0,63,0.00,,---,0.00,VWS V14.01,2013-08-24 05:53:00,
2013-08-24 07:58:00,64.6,51.3,29.97,NNW,334,3.6,4.0,62,0.00,,---,0.00,VWS V14.01,2013-08-24 05:58:00,
2013-08-24 08:03:00,65.5,52.1,29.97,WNW,290,2.7,6.7,62,0.00,,---,0.00,VWS V14.01,2013-08-24 06:03:00,
2013-08-24 08:08:00,66.0,51.8,29.97,North,356,3.1,3.1,60,0.00,,---,0.00,VWS V14.01,2013-08-24 06:08:00,
2013-08-24 08:13:00,66.7,52.0,29.97,NW,311,4.9,6.3,59,0.00,,---,0.00,VWS V14.01,2013-08-24 06:13:00,
2013-08-24 08:18:00,67.5,51.2,29.97,North,356,5.8,5.8,56,0.00,,---,0.00,VWS V14.01,2013-08-24 06:18:00,
2013-08-24 08:23:00,68.2,51.4,29.97,West,275,6.3,6.7,55,0.00,,---,0.00,VWS V14.01,2013-08-24 06:23:00,
2013-08-24 08:28:00,68.9,50.6,29.97,NW,312,4.5,4.5,52,0.00,,---,0.00,VWS V14.01,2013-08-24 06:28:00,
2013-08-24 08:33:00,68.7,49.9,29.97,North,351,3.1,4.5,51,0.00,,---,0.00,VWS V14.01,2013-08-24 06:33:00,
2013-08-24 08:38:00,68.9,49.5,29.97,West,273,4.5,4.5,50,0.00,,---,0.00,VWS V14.01,2013-08-24 06:38:00,
2013-08-24 08:43:00,70.2,51.2,29.97,WNW,282,3.6,4.5,51,0.00,,---,0.00,VWS V14.01,2013-08-24 06:43:00,
2013-08-24 08:48:00,69.6,48.5,29.97,NNW,334,3.1,3.6,47,0.00,,---,0.00,VWS V14.01,2013-08-24 06:48:00,
2013-08-24 08:53:00,70.0,49.4,29.97,WNW,287,4.0,6.3,48,0.00,,---,0.00,VWS V14.01,2013-08-24 06:53:00,
2013-08-24 08:58:00,70.0,48.8,29.97,West,276,6.3,6.9,47,0.00,,---,0.00,VWS V14.01,2013-08-24 06:58:00,
2013-08-24 09:03:00,70.5,49.3,29.97,North,351,0.0,4.0,47,0.00,,---,0.00,VWS V14.01,2013-08-24 07:03:00,
2013-08-24 09:08:00,70.3,49.2,29.97,NNW,339,0.0,5.8,47,0.00,,---,0.00,VWS V14.01,2013-08-24 07:08:00,
2013-08-24 09:13:00,71.1,49.3,29.97,North,351,3.6,4.9,46,0.00,,---,0.00,VWS V14.01,2013-08-24 07:13:00,
2013-08-24 09:18:00,70.5,48.8,29.97,NNW,347,4.0,5.8,46,0.00,,---,0.00,VWS V14.01,2013-08-24 07:18:00,
2013-08-24 09:23:00,70.5,49.3,29.97,North,356,3.1,6.3,47,0.00,,---,0.00,VWS V14.01,2013-08-24 07:23:00,
2013-08-24 09:28:00,71.2,49.4,29.97,WNW,293,4.9,6.3,46,0.00,,---,0.00,VWS V14.01,2013-08-24 07:28:00,
2013-08-24 09:33:00,71.2,48.8,29.97,NW,320,4.0,4.5,45,0.00,,---,0.00,VWS V14.01,2013-08-24 07:33:00,
2013-08-24 09:38:00,71.8,49.3,29.97,NNW,338,3.1,5.4,45,0.00,,---,0.00,VWS V14.01,2013-08-24 07:38:00,
2013-08-24 09:43:00,71.1,48.7,29.97,NNW,343,0.0,4.0,45,0.00,,---,0.00,VWS V14.01,2013-08-24 07:43:00,
2013-08-24 09:48:00,71.2,48.8,29.97,NNW,342,3.6,6.3,45,0.00,,---,0.00,VWS V14.01,2013-08-24 07:48:00,
2013-08-24 09:53:00,71.4,49.0,29.97,NNW,334,7.4,7.4,45,0.00,,---,0.00,VWS V14.01,2013-08-24 07:53:00,
2013-08-24 09:58:00,71.1,48.7,29.97,NNW,333,3.1,5.8,45,0.00,,---,0.00,VWS V14.01,2013-08-24 07:58:00,
2013-08-24 10:04:00,71.1,48.7,29.97,ESE,104,3.6,6.3,45,0.00,,---,0.00,VWS V14.01,2013-08-24 08:04:00,
2013-08-24 10:09:00,71.1,48.7,29.97,North,356,4.5,5.4,45,0.00,,---,0.00,VWS V14.01,2013-08-24 08:09:00,
2013-08-24 10:14:00,71.1,48.7,29.97,SSE,164,4.9,4.9,45,0.00,,---,0.00,VWS V14.01,2013-08-24 08:14:00,
2013-08-24 10:19:00,71.2,48.2,29.97,North,351,5.8,6.9,44,0.00,,---,0.00,VWS V14.01,2013-08-24 08:19:00,
2013-08-24 10:24:00,71.4,48.4,29.97,WNW,282,3.1,9.6,44,0.00,,---,0.00,VWS V14.01,2013-08-24 08:24:00,
2013-08-24 10:29:00,71.8,48.7,29.97,NNW,346,6.3,7.4,44,0.00,,---,0.00,VWS V14.01,2013-08-24 08:29:00,
2013-08-24 10:34:00,72.0,48.9,29.97,NW,316,4.0,5.8,44,0.00,,---,0.00,VWS V14.01,2013-08-24 08:34:00,
2013-08-24 10:39:00,72.3,48.6,29.97,North,356,4.9,4.9,43,0.00,,---,0.00,VWS V14.01,2013-08-24 08:39:00,
2013-08-24 10:44:00,73.4,48.9,29.97,North,2,5.8,6.9,42,0.00,,---,0.00,VWS V14.01,2013-08-24 08:44:00,
2013-08-24 10:49:00,73.9,49.4,29.97,SSE,149,2.7,5.4,42,0.00,,---,0.00,VWS V14.01,2013-08-24 08:49:00,
2013-08-24 10:54:00,74.7,49.4,29.97,WNW,302,2.7,4.9,41,0.00,,---,0.00,VWS V14.01,2013-08-24 08:54:00,
2013-08-24 10:59:00,73.9,48.8,29.97,SE,131,5.4,6.3,41,0.00,,---,0.00,VWS V14.01,2013-08-24 08:59:00,
2013-08-24 11:04:00,74.7,49.4,29.97,South,171,3.1,6.3,41,0.00,,---,0.00,VWS V14.01,2013-08-24 09:04:00,
2013-08-24 11:09:00,75.4,49.4,29.97,West,261,6.3,6.3,40,0.00,,---,0.00,VWS V14.01,2013-08-24 09:09:00,
2013-08-24 11:14:00,76.3,49.5,29.97,NE,52,3.1,4.0,39,0.00,,---,0.00,VWS V14.01,2013-08-24 09:14:00,
2013-08-24 11:19:00,77.0,50.2,29.97,WNW,303,3.6,6.9,39,0.00,,---,0.00,VWS V14.01,2013-08-24 09:19:00,
2013-08-24 11:24:00,76.8,49.3,29.97,SSE,148,2.7,4.0,38,0.00,,---,0.00,VWS V14.01,2013-08-24 09:24:00,
2013-08-24 11:29:00,77.5,50.7,29.97,WNW,303,6.3,9.2,39,0.00,,---,0.00,VWS V14.01,2013-08-24 09:29:00,
2013-08-24 11:34:00,78.3,49.9,29.94,NNW,335,5.4,10.5,37,0.00,,---,0.00,VWS V14.01,2013-08-24 09:34:00,
2013-08-24 11:39:00,77.4,48.3,29.94,North,10,4.0,6.7,36,0.00,,---,0.00,VWS V14.01,2013-08-24 09:39:00,
2013-08-24 11:44:00,76.6,48.4,29.94,WNW,284,6.9,11.0,37,0.00,,---,0.00,VWS V14.01,2013-08-24 09:44:00,
2013-08-24 11:49:00,77.2,49.6,29.94,WNW,282,7.8,10.1,38,0.00,,---,0.00,VWS V14.01,2013-08-24 09:49:00,
2013-08-24 11:54:00,78.4,50.0,29.94,WNW,303,8.3,11.2,37,0.00,,---,0.00,VWS V14.01,2013-08-24 09:54:00,
2013-08-24 11:59:00,78.8,50.4,29.94,WNW,286,9.2,13.0,37,0.00,,---,0.00,VWS V14.01,2013-08-24 09:59:00,
2013-08-24 12:04:00,79.0,49.8,29.94,WNW,295,8.7,11.2,36,0.00,,---,0.00,VWS V14.01,2013-08-24 10:04:00,
2013-08-24 12:09:00,78.8,49.6,29.94,WNW,287,7.4,11.0,36,0.00,,---,0.00,VWS V14.01,2013-08-24 10:09:00,
2013-08-24 12:14:00,78.3,49.1,29.94,NW,312,6.3,11.6,36,0.00,,---,0.00,VWS V14.01,2013-08-24 10:14:00,
2013-08-24 12:19:00,76.6,47.7,29.94,WNW,293,5.8,6.9,36,0.00,,---,0.00,VWS V14.01,2013-08-24 10:19:00,
2013-08-24 12:24:00,75.2,47.9,29.94,WNW,301,3.6,8.3,38,0.00,,---,0.00,VWS V14.01,2013-08-24 10:24:00,
2013-08-24 12:29:00,75.4,49.4,29.94,WNW,301,6.3,6.3,40,0.00,,---,0.00,VWS V14.01,2013-08-24 10:29:00,
2013-08-24 12:34:00,75.4,48.7,29.94,NNW,346,3.6,7.4,39,0.00,,---,0.00,VWS V14.01,2013-08-24 10:34:00,
2013-08-24 12:39:00,75.2,49.2,29.94,WSW,252,6.9,6.9,40,0.00,,---,0.00,VWS V14.01,2013-08-24 10:39:00,
2013-08-24 12:44:00,75.9,49.9,29.94,WNW,283,6.9,11.0,40,0.00,,---,0.00,VWS V14.01,2013-08-24 10:44:00,
2013-08-24 12:49:00,75.7,49.0,29.94,West,278,6.3,6.9,39,0.00,,---,0.00,VWS V14.01,2013-08-24 10:49:00,
2013-08-24 12:54:00,75.6,48.2,29.94,NNW,343,6.3,8.7,38,0.00,,---,0.00,VWS V14.01,2013-08-24 10:54:00,
2013-08-24 12:59:00,74.7,47.4,29.94,North,351,4.0,6.3,38,0.00,,---,0.00,VWS V14.01,2013-08-24 10:59:00,
2013-08-24 13:04:00,74.8,48.2,29.94,WNW,295,4.9,7.8,39,0.00,,---,0.00,VWS V14.01,2013-08-24 11:04:00,
2013-08-24 13:09:00,75.0,48.4,29.94,NNW,342,5.8,6.3,39,0.00,,---,0.00,VWS V14.01,2013-08-24 11:09:00,
2013-08-24 13:14:00,74.7,48.1,29.94,West,269,5.8,8.3,39,0.00,,---,0.00,VWS V14.01,2013-08-24 11:14:00,
2013-08-24 13:19:00,75.7,49.0,29.94,WNW,294,7.8,9.6,39,0.00,,---,0.00,VWS V14.01,2013-08-24 11:19:00,
2013-08-24 13:24:00,76.1,49.4,29.94,West,278,7.8,9.2,39,0.00,,---,0.00,VWS V14.01,2013-08-24 11:24:00,
2013-08-24 13:29:00,76.6,48.4,29.94,North,351,4.0,6.9,37,0.00,,---,0.00,VWS V14.01,2013-08-24 11:29:00,
2013-08-24 13:34:00,77.2,49.6,29.94,West,268,7.4,8.3,38,0.00,,---,0.00,VWS V14.01,2013-08-24 11:34:00,
2013-08-24 13:39:00,77.7,48.7,29.94,West,280,3.6,9.2,36,0.00,,---,0.00,VWS V14.01,2013-08-24 11:39:00,
2013-08-24 13:44:00,77.5,48.5,29.94,West,259,9.2,9.2,36,0.00,,---,0.00,VWS V14.01,2013-08-24 11:44:00,
2013-08-24 13:49:00,78.4,48.5,29.94,WNW,295,4.5,9.2,35,0.00,,---,0.00,VWS V14.01,2013-08-24 11:49:00,
2013-08-24 13:54:00,79.2,49.2,29.94,West,276,9.6,10.1,35,0.00,,---,0.00,VWS V14.01,2013-08-24 11:54:00,
2013-08-24 13:59:00,79.3,48.6,29.94,West,266,6.7,7.8,34,0.00,,---,0.00,VWS V14.01,2013-08-24 11:59:00,
2013-08-24 14:04:00,79.5,48.7,29.94,West,281,9.2,10.5,34,0.00,,---,0.00,VWS V14.01,2013-08-24 12:04:00,
2013-08-24 14:09:00,79.0,47.5,29.94,WNW,283,6.7,8.3,33,0.00,,---,0.00,VWS V14.01,2013-08-24 12:09:00,
2013-08-24 14:14:00,79.2,48.4,29.94,West,266,4.9,7.4,34,0.00,,---,0.00,VWS V14.01,2013-08-24 12:14:00,
2013-08-24 14:19:00,79.3,47.8,29.94,West,279,5.8,6.7,33,0.00,,---,0.00,VWS V14.01,2013-08-24 12:19:00,
2013-08-24 14:24:00,79.5,47.1,29.94,WNW,282,5.4,8.7,32,0.00,,---,0.00,VWS V14.01,2013-08-24 12:24:00,
2013-08-24 14:29:00,79.9,47.4,29.94,West,279,3.1,7.8,32,0.00,,---,0.00,VWS V14.01,2013-08-24 12:29:00,
2013-08-24 14:34:00,80.1,47.6,29.94,SSE,147,3.6,5.8,32,0.00,,---,0.00,VWS V14.01,2013-08-24 12:34:00,
2013-08-24 14:39:00,80.1,47.6,29.94,West,277,8.3,8.7,32,0.00,,---,0.00,VWS V14.01,2013-08-24 12:39:00,
2013-08-24 14:44:00,80.1,47.6,29.94,West,263,6.3,6.3,32,0.00,,---,0.00,VWS V14.01,2013-08-24 12:44:00,
2013-08-24 14:49:00,80.1,47.6,29.91,West,278,4.0,6.7,32,0.00,,---,0.00,VWS V14.01,2013-08-24 12:49:00,
2013-08-24 14:54:00,80.1,47.6,29.91,West,272,3.1,4.0,32,0.00,,---,0.00,VWS V14.01,2013-08-24 12:54:00,
2013-08-24 14:59:00,79.7,47.3,29.91,SW,222,3.6,4.9,32,0.00,,---,0.00,VWS V14.01,2013-08-24 12:59:00,
2013-08-24 15:04:00,79.2,47.6,29.91,SSE,159,4.0,6.7,33,0.00,,---,0.00,VWS V14.01,2013-08-24 13:04:00,
2013-08-24 15:09:00,79.0,47.5,29.91,SSE,159,0.0,4.0,33,0.00,,---,0.00,VWS V14.01,2013-08-24 13:09:00,
2013-08-24 15:14:00,78.6,47.1,29.91,South,191,0.0,0.0,33,0.00,,---,0.00,VWS V14.01,2013-08-24 13:14:00,
2013-08-24 15:19:00,78.6,47.1,29.91,South,191,0.0,4.0,33,0.00,,---,0.00,VWS V14.01,2013-08-24 13:19:00,
2013-08-24 15:24:00,78.4,47.0,29.91,South,191,3.1,3.6,33,0.00,,---,0.00,VWS V14.01,2013-08-24 13:24:00,
2013-08-24 15:29:00,78.3,46.8,29.91,South,191,0.0,3.6,33,0.00,,---,0.00,VWS V14.01,2013-08-24 13:29:00,
2013-08-24 15:34:00,78.1,46.7,29.91,South,191,2.7,3.1,33,0.00,,---,0.00,VWS V14.01,2013-08-24 13:34:00,
2013-08-24 15:39:00,77.9,47.3,29.91,South,191,3.1,3.1,34,0.00,,---,0.00,VWS V14.01,2013-08-24 13:39:00,
2013-08-24 15:44:00,77.7,47.1,29.91,South,191,0.0,3.1,34,0.00,,---,0.00,VWS V14.01,2013-08-24 13:44:00,
2013-08-24 15:49:00,77.9,47.3,29.91,South,191,0.0,3.1,34,0.00,,---,0.00,VWS V14.01,2013-08-24 13:49:00,
2013-08-24 15:54:00,77.9,47.3,29.91,SSW,192,2.7,3.1,34,0.00,,---,0.00,VWS V14.01,2013-08-24 13:54:00,
2013-08-24 15:59:00,77.9,47.3,29.91,SSE,155,3.6,4.5,34,0.00,,---,0.00,VWS V14.01,2013-08-24 13:59:00,
2013-08-24 16:04:00,77.7,47.1,29.91,SSE,155,0.0,0.0,34,0.00,,---,0.00,VWS V14.01,2013-08-24 14:04:00,
2013-08-24 16:09:00,77.7,47.1,29.91,SW,233,3.6,4.5,34,0.00,,---,0.00,VWS V14.01,2013-08-24 14:09:00,
2013-08-24 16:14:00,78.1,47.5,29.91,West,281,4.9,5.8,34,0.00,,---,0.00,VWS V14.01,2013-08-24 14:14:00,
2013-08-24 16:19:00,78.3,47.6,29.91,WNW,284,4.9,5.8,34,0.00,,---,0.00,VWS V14.01,2013-08-24 14:19:00,
2013-08-24 16:24:00,78.4,47.8,29.91,West,278,2.7,4.5,34,0.00,,---,0.00,VWS V14.01,2013-08-24 14:24:00,
2013-08-24 16:29:00,78.3,47.6,29.91,WNW,290,5.8,5.8,34,0.00,,---,0.00,VWS V14.01,2013-08-24 14:29:00,
2013-08-24 16:34:00,78.3,47.6,29.91,WNW,282,4.9,5.4,34,0.00,,---,0.00,VWS V14.01,2013-08-24 14:34:00,
2013-08-24 16:39:00,78.4,47.8,29.91,West,273,0.0,4.5,34,0.00,,---,0.00,VWS V14.01,2013-08-24 14:39:00,
2013-08-24 16:44:00,78.4,47.8,29.91,SW,230,3.1,4.0,34,0.00,,---,0.00,VWS V14.01,2013-08-24 14:44:00,
2013-08-24 16:49:00,78.4,47.8,29.91,SW,231,3.6,3.6,34,0.00,,---,0.00,VWS V14.01,2013-08-24 14:49:00,
2013-08-24 16:54:00,78.4,47.8,29.91,West,276,4.5,6.3,34,0.00,,---,0.00,VWS V14.01,2013-08-24 14:54:00,
2013-08-24 16:59:00,78.1,48.2,29.91,WNW,284,6.7,6.9,35,0.00,,---,0.00,VWS V14.01,2013-08-24 14:59:00,
2013-08-24 17:04:00,77.9,48.1,29.91,WSW,252,2.7,3.6,35,0.00,,---,0.00,VWS V14.01,2013-08-24 15:04:00,
2013-08-24 17:09:00,77.5,48.5,29.91,West,268,0.0,4.5,36,0.00,,---,0.00,VWS V14.01,2013-08-24 15:09:00,
2013-08-24 17:14:00,77.4,48.3,29.91,West,267,4.5,5.4,36,0.00,,---,0.00,VWS V14.01,2013-08-24 15:14:00,
2013-08-24 17:19:00,77.2,48.9,29.91,West,281,6.3,6.7,37,0.00,,---,0.00,VWS V14.01,2013-08-24 15:19:00,
2013-08-24 17:24:00,77.0,48.8,29.91,SW,230,0.0,2.7,37,0.00,,---,0.00,VWS V14.01,2013-08-24 15:24:00,
2013-08-24 17:29:00,76.6,49.2,29.91,South,177,2.7,5.4,38,0.00,,---,0.00,VWS V14.01,2013-08-24 15:29:00,
2013-08-24 17:34:00,76.3,48.8,29.91,SSE,149,4.0,4.5,38,0.00,,---,0.00,VWS V14.01,2013-08-24 15:34:00,
2013-08-24 17:39:00,75.9,49.2,29.91,SSE,149,0.0,3.6,39,0.00,,---,0.00,VWS V14.01,2013-08-24 15:39:00,
2013-08-24 17:44:00,75.7,49.0,29.91,SSW,194,2.7,4.5,39,0.00,,---,0.00,VWS V14.01,2013-08-24 15:44:00,
2013-08-24 17:49:00,75.6,48.9,29.88,SSE,151,0.0,4.9,39,0.00,,---,0.00,VWS V14.01,2013-08-24 15:49:00,
2013-08-24 17:54:00,75.2,49.2,29.88,SSE,159,2.7,4.5,40,0.00,,---,0.00,VWS V14.01,2013-08-24 15:54:00,
2013-08-24 17:59:00,75.2,49.2,29.88,SSE,148,4.9,5.8,40,0.00,,---,0.00,VWS V14.01,2013-08-24 15:59:00,
2013-08-24 18:04:00,75.0,49.1,29.88,West,275,7.8,9.6,40,0.00,,---,0.00,VWS V14.01,2013-08-24 16:04:00,
2013-08-24 18:09:00,75.0,48.4,29.88,West,267,7.8,7.8,39,0.00,,---,0.00,VWS V14.01,2013-08-24 16:09:00,
2013-08-24 18:14:00,75.0,49.1,29.88,WNW,298,8.3,8.3,40,0.00,,---,0.00,VWS V14.01,2013-08-24 16:14:00,
2013-08-24 18:19:00,74.8,48.9,29.88,WNW,284,3.6,8.7,40,0.00,,---,0.00,VWS V14.01,2013-08-24 16:19:00,
2013-08-24 18:24:00,74.7,48.8,29.88,West,279,8.3,8.3,40,0.00,,---,0.00,VWS V14.01,2013-08-24 16:24:00,
2013-08-24 18:29:00,74.5,47.9,29.88,WNW,288,8.3,12.5,39,0.00,,---,0.00,VWS V14.01,2013-08-24 16:29:00,
2013-08-24 18:34:00,74.3,47.8,29.88,WNW,291,4.9,9.2,39,0.00,,---,0.00,VWS V14.01,2013-08-24 16:34:00,
2013-08-24 18:39:00,74.1,48.3,29.88,West,276,6.7,8.7,40,0.00,,---,0.00,VWS V14.01,2013-08-24 16:39:00,
2013-08-24 18:44:00,73.8,48.0,29.88,WNW,286,6.3,9.2,40,0.00,,---,0.00,VWS V14.01,2013-08-24 16:44:00,
2013-08-24 18:49:00,73.6,47.8,29.88,WNW,300,6.3,6.7,40,0.00,,---,0.00,VWS V14.01,2013-08-24 16:49:00,
2013-08-24 18:54:00,73.6,47.8,29.88,West,277,10.1,10.1,40,0.00,,---,0.00,VWS V14.01,2013-08-24 16:54:00,
2013-08-24 18:59:00,73.4,47.6,29.88,WNW,288,5.8,7.4,40,0.00,,---,0.00,VWS V14.01,2013-08-24 16:59:00,
2013-08-24 19:04:00,73.4,47.6,29.88,West,280,6.3,6.9,40,0.00,,---,0.00,VWS V14.01,2013-08-24 17:04:00,
2013-08-24 19:09:00,73.2,48.1,29.88,WNW,296,4.5,7.4,41,0.00,,---,0.00,VWS V14.01,2013-08-24 17:09:00,
2013-08-24 19:14:00,73.0,48.0,29.88,West,275,6.7,6.7,41,0.00,,---,0.00,VWS V14.01,2013-08-24 17:14:00,
2013-08-24 19:19:00,73.0,48.0,29.88,West,280,3.1,5.8,41,0.00,,---,0.00,VWS V14.01,2013-08-24 17:19:00,
2013-08-24 19:24:00,72.9,47.8,29.88,West,281,5.4,7.4,41,0.00,,---,0.00,VWS V14.01,2013-08-24 17:24:00,
2013-08-24 19:29:00,72.7,47.7,29.88,West,278,5.8,7.4,41,0.00,,---,0.00,VWS V14.01,2013-08-24 17:29:00,
2013-08-24 19:34:00,72.7,48.3,29.88,West,272,5.8,5.8,42,0.00,,---,0.00,VWS V14.01,2013-08-24 17:34:00,
2013-08-24 19:39:00,72.5,48.1,29.88,WNW,282,4.9,6.7,42,0.00,,---,0.00,VWS V14.01,2013-08-24 17:39:00,
2013-08-24 19:44:00,72.3,48.0,29.88,WNW,283,4.9,6.7,42,0.00,,---,0.00,VWS V14.01,2013-08-24 17:44:00,
2013-08-24 19:49:00,72.3,48.0,29.88,West,277,4.0,5.4,42,0.00,,---,0.00,VWS V14.01,2013-08-24 17:49:00,
2013-08-24 19:54:00,72.3,48.6,29.88,WNW,290,4.5,6.3,43,0.00,,---,0.00,VWS V14.01,2013-08-24 17:54:00,
2013-08-24 19:59:00,72.3,48.6,29.88,WNW,282,4.5,4.5,43,0.00,,---,0.00,VWS V14.01,2013-08-24 17:59:00,
2013-08-24 20:04:00,72.1,48.4,29.88,WNW,291,5.4,6.7,43,0.00,,---,0.00,VWS V14.01,2013-08-24 18:04:00,
2013-08-24 20:09:00,72.1,49.0,29.88,West,273,5.4,6.7,44,0.00,,---,0.00,VWS V14.01,2013-08-24 18:09:00,
2013-08-24 20:14:00,72.1,49.0,29.88,West,273,5.4,5.8,44,0.00,,---,0.00,VWS V14.01,2013-08-24 18:14:00,
2013-08-24 20:19:00,72.1,49.0,29.88,WNW,284,5.4,6.3,44,0.00,,---,0.00,VWS V14.01,2013-08-24 18:19:00,
2013-08-24 20:24:00,72.3,49.2,29.88,West,276,5.8,6.9,44,0.00,,---,0.00,VWS V14.01,2013-08-24 18:24:00,
2013-08-24 20:29:00,72.1,49.0,29.88,West,278,4.5,5.4,44,0.00,,---,0.00,VWS V14.01,2013-08-24 18:29:00,
2013-08-24 20:34:00,72.1,49.7,29.88,WNW,293,4.9,6.3,45,0.00,,---,0.00,VWS V14.01,2013-08-24 18:34:00,
2013-08-24 20:39:00,72.1,49.7,29.88,West,279,4.9,5.8,45,0.00,,---,0.00,VWS V14.01,2013-08-24 18:39:00,
2013-08-24 20:44:00,72.1,49.7,29.88,West,281,4.9,6.7,45,0.00,,---,0.00,VWS V14.01,2013-08-24 18:44:00,
2013-08-24 20:49:00,72.1,49.7,29.88,West,274,4.0,4.9,45,0.00,,---,0.00,VWS V14.01,2013-08-24 18:49:00,
2013-08-24 20:54:00,72.0,49.5,29.88,West,275,2.7,3.6,45,0.00,,---,0.00,VWS V14.01,2013-08-24 18:54:00,
2013-08-24 20:59:00,72.0,49.5,29.88,West,275,3.1,3.6,45,0.00,,---,0.00,VWS V14.01,2013-08-24 18:59:00,
2013-08-24 21:04:00,71.8,49.3,29.91,West,275,4.0,4.0,45,0.00,,---,0.00,VWS V14.01,2013-08-24 19:04:00,
2013-08-24 21:09:00,71.8,49.3,29.91,West,275,3.1,3.6,45,0.00,,---,0.00,VWS V14.01,2013-08-24 19:09:00,
2013-08-24 21:14:00,71.4,49.0,29.91,West,275,0.0,0.0,45,0.00,,---,0.00,VWS V14.01,2013-08-24 19:14:00,
2013-08-24 21:19:00,71.1,48.7,29.88,West,275,0.0,0.0,45,0.00,,---,0.00,VWS V14.01,2013-08-24 19:19:00,
2013-08-24 21:24:00,71.1,49.3,29.88,West,275,3.6,3.6,46,0.00,,---,0.00,VWS V14.01,2013-08-24 19:24:00,
2013-08-24 21:29:00,70.9,49.1,29.88,West,275,0.0,3.6,46,0.00,,---,0.00,VWS V14.01,2013-08-24 19:29:00,
2013-08-24 21:34:00,70.7,48.9,29.91,West,275,0.0,0.0,46,0.00,,---,0.00,VWS V14.01,2013-08-24 19:34:00,
2013-08-24 21:39:00,70.9,49.7,29.91,West,275,0.0,0.0,47,0.00,,---,0.00,VWS V14.01,2013-08-24 19:39:00,
2013-08-24 21:44:00,70.7,48.9,29.91,West,267,0.0,3.1,46,0.00,,---,0.00,VWS V14.01,2013-08-24 19:44:00,
2013-08-24 21:49:00,70.9,49.7,29.91,West,267,3.1,3.6,47,0.00,,---,0.00,VWS V14.01,2013-08-24 19:49:00,
2013-08-24 21:54:00,70.9,49.7,29.91,SSW,207,4.0,4.0,47,0.00,,---,0.00,VWS V14.01,2013-08-24 19:54:00,
2013-08-24 21:59:00,70.7,49.5,29.91,SSW,207,4.5,4.5,47,0.00,,---,0.00,VWS V14.01,2013-08-24 19:59:00,
2013-08-24 22:04:00,70.3,49.2,29.91,SSW,207,0.0,3.1,47,0.00,,---,0.00,VWS V14.01,2013-08-24 20:04:00,
2013-08-24 22:09:00,70.0,49.4,29.91,SSW,207,4.0,4.0,48,0.00,,---,0.00,VWS V14.01,2013-08-24 20:09:00,
2013-08-24 22:14:00,69.6,49.1,29.91,SSW,207,2.7,3.6,48,0.00,,---,0.00,VWS V14.01,2013-08-24 20:14:00,
2013-08-24 22:19:00,69.4,49.5,29.91,SSW,207,0.0,3.6,49,0.00,,---,0.00,VWS V14.01,2013-08-24 20:19:00,
2013-08-24 22:24:00,69.4,49.5,29.91,SSE,163,6.7,6.7,49,0.00,,---,0.00,VWS V14.01,2013-08-24 20:24:00,
2013-08-24 22:29:00,69.4,50.0,29.91,SE,146,4.9,4.9,50,0.00,,---,0.00,VWS V14.01,2013-08-24 20:29:00,
2013-08-24 22:34:00,69.1,49.7,29.91,NNE,24,0.0,4.5,50,0.00,,---,0.00,VWS V14.01,2013-08-24 20:34:00,
2013-08-24 22:39:00,68.9,50.0,29.91,North,2,4.0,4.5,51,0.00,,---,0.00,VWS V14.01,2013-08-24 20:39:00,
2013-08-24 22:44:00,68.5,50.2,29.91,North,356,3.6,4.9,52,0.00,,---,0.00,VWS V14.01,2013-08-24 20:44:00,
2013-08-24 22:49:00,68.4,50.1,29.91,WNW,291,3.1,4.9,52,0.00,,---,0.00,VWS V14.01,2013-08-24 20:49:00,
2013-08-24 22:54:00,68.2,50.4,29.91,NNW,327,3.6,4.9,53,0.00,,---,0.00,VWS V14.01,2013-08-24 20:54:00,
2013-08-24 22:59:00,68.2,50.4,29.91,NW,318,2.7,3.6,53,0.00,,---,0.00,VWS V14.01,2013-08-24 20:59:00,
2013-08-24 23:04:00,68.0,50.2,29.88,NW,314,0.0,5.4,53,0.00,,---,0.00,VWS V14.01,2013-08-24 21:04:00,
2013-08-24 23:09:00,67.8,50.6,29.88,NW,321,3.1,4.5,54,0.00,,---,0.00,VWS V14.01,2013-08-24 21:09:00,
2013-08-24 23:14:00,67.8,50.6,29.88,NW,325,0.0,4.5,54,0.00,,---,0.00,VWS V14.01,2013-08-24 21:14:00,
2013-08-24 23:19:00,67.6,50.4,29.88,NW,316,4.0,4.5,54,0.00,,---,0.00,VWS V14.01,2013-08-24 21:19:00,
2013-08-24 23:24:00,67.6,50.9,29.88,NNW,336,3.1,5.4,55,0.00,,---,0.00,VWS V14.01,2013-08-24 21:24:00,
2013-08-24 23:29:00,67.5,50.8,29.88,NNW,342,5.8,5.8,55,0.00,,---,0.00,VWS V14.01,2013-08-24 21:29:00,
2013-08-24 23:34:00,67.5,51.2,29.91,North,351,4.5,4.5,56,0.00,,---,0.00,VWS V14.01,2013-08-24 21:34:00,
2013-08-24 23:39:00,67.3,51.1,29.91,North,351,3.1,3.6,56,0.00,,---,0.00,VWS V14.01,2013-08-24 21:39:00,
2013-08-24 23:44:00,67.3,51.5,29.91,NNW,338,3.1,3.1,57,0.00,,---,0.00,VWS V14.01,2013-08-24 21:44:00,
2013-08-24 23:49:00,67.3,51.5,29.91,NNW,343,2.7,4.0,57,0.00,,---,0.00,VWS V14.01,2013-08-24 21:49:00,
2013-08-24 23:54:00,67.3,51.5,29.91,WNW,293,4.5,4.5,57,0.00,,---,0.00,VWS V14.01,2013-08-24 21:54:00,
2013-08-24 23:59:00,67.3,52.0,29.91,WNW,295,0.0,3.1,58,0.00,,---,0.00,VWS V14.01,2013-08-24 21:59:00,